Time,TemperatureF,DewpointF,PressureIn,WindDirection,WindDirectionDegrees,WindSpeedMPH,WindSpeedGustMPH,Humidity,HourlyPrecipIn,Conditions,Clouds,dailyrainin,SoftwareType,DateUTC
2013-12-17 00:08:00,17.9,15.0,30.00,ESE,107,0.0,-999.0,89,-99.99,,,0.00,weatherlink.com 1.10,2013-12-17 05:08:00,
2013-12-17 00:23:00,18.0,15.0,30.00,ESE,107,0.0,-999.0,89,-99.99,,,0.01,weatherlink.com 1.10,2013-12-17 05:23:00,
2013-12-17 00:38:00,17.9,15.0,30.00,ESE,107,0.0,-999.0,89,-99.99,,,0.01,weatherlink.com 1.10,2013-12-17 05:38:00,
2013-12-17 00:53:00,17.9,15.0,30.00,ESE,107,0.0,-999.0,89,-99.99,,,0.02,weatherlink.com 1.10,2013-12-17 05:53:00,
2013-12-17 01:08:00,17.7,15.0,29.99,ESE,107,0.0,-999.0,89,-99.99,,,0.02,weatherlink.com 1.10,2013-12-17 06:08:00,
2013-12-17 01:23:00,17.6,15.0,29.99,ESE,105,1.0,-999.0,89,-99.99,,,0.02,weatherlink.com 1.10,2013-12-17 06:23:00,
2013-12-17 01:38:00,17.6,15.0,30.00,ESE,105,0.0,-999.0,90,-99.99,,,0.02,weatherlink.com 1.10,2013-12-17 06:38:00,
2013-12-17 01:53:00,17.7,15.0,29.99,ESE,105,0.0,-999.0,89,-99.99,,,0.02,weatherlink.com 1.10,2013-12-17 06:53:00,
2013-12-17 02:08:00,17.7,15.0,29.98,ESE,106,0.0,-999.0,89,-99.99,,,0.02,weatherlink.com 1.10,2013-12-17 07:08:00,
2013-12-17 02:23:00,18.0,16.0,29.98,ESE,105,0.0,-999.0,90,-99.99,,,0.02,weatherlink.com 1.10,2013-12-17 07:23:00,
2013-12-17 02:38:00,18.3,16.0,29.96,ESE,105,0.0,-999.0,89,-99.99,,,0.02,weatherlink.com 1.10,2013-12-17 07:38:00,
2013-12-17 02:53:00,18.3,16.0,29.97,ESE,105,0.0,-999.0,89,-99.99,,,0.02,weatherlink.com 1.10,2013-12-17 07:53:00,
2013-12-17 03:08:00,18.1,15.0,29.96,ESE,105,0.0,-999.0,89,-99.99,,,0.02,weatherlink.com 1.10,2013-12-17 08:08:00,
2013-12-17 03:23:00,17.3,14.0,29.97,ESE,105,0.0,-999.0,88,-99.99,,,0.02,weatherlink.com 1.10,2013-12-17 08:23:00,
2013-12-17 03:38:00,16.7,14.0,29.97,ESE,105,0.0,-999.0,89,-99.99,,,0.02,weatherlink.com 1.10,2013-12-17 08:38:00,
2013-12-17 03:53:00,16.3,14.0,29.97,ESE,105,0.0,-999.0,89,-99.99,,,0.02,weatherlink.com 1.10,2013-12-17 08:53:00,
2013-12-17 04:08:00,16.7,14.0,29.96,ESE,105,0.0,-999.0,90,-99.99,,,0.02,weatherlink.com 1.10,2013-12-17 09:08:00,
2013-12-17 04:23:00,16.6,14.0,29.97,ESE,105,0.0,-999.0,89,-99.99,,,0.02,weatherlink.com 1.10,2013-12-17 09:23:00,
2013-12-17 04:38:00,16.5,14.0,29.97,ESE,105,0.0,-999.0,89,-99.99,,,0.02,weatherlink.com 1.10,2013-12-17 09:38:00,
2013-12-17 04:53:00,16.4,14.0,29.97,ESE,105,0.0,-999.0,89,-99.99,,,0.02,weatherlink.com 1.10,2013-12-17 09:53:00,
2013-12-17 05:08:00,16.5,14.0,29.97,ESE,105,1.0,-999.0,89,-99.99,,,0.02,weatherlink.com 1.10,2013-12-17 10:08:00,
2013-12-17 05:23:00,16.6,14.0,29.96,ESE,105,0.0,-999.0,89,-99.99,,,0.02,weatherlink.com 1.10,2013-12-17 10:23:00,
2013-12-17 05:38:00,16.7,14.0,29.97,ESE,106,0.0,-999.0,89,-99.99,,,0.02,weatherlink.com 1.10,2013-12-17 10:38:00,
2013-12-17 05:53:00,16.8,14.0,29.97,SSW,199,1.0,-999.0,89,-99.99,,,0.02,weatherlink.com 1.10,2013-12-17 10:53:00,
2013-12-17 06:08:00,17.0,14.0,29.96,SSW,198,2.0,-999.0,89,-99.99,,,0.02,weatherlink.com 1.10,2013-12-17 11:08:00,
2013-12-17 06:23:00,17.2,15.0,29.97,SSW,198,0.0,-999.0,89,-99.99,,,0.02,weatherlink.com 1.10,2013-12-17 11:23:00,
2013-12-17 06:38:00,17.5,15.0,29.98,SSW,198,2.0,-999.0,88,-99.99,,,0.02,weatherlink.com 1.10,2013-12-17 11:38:00,
2013-12-17 06:53:00,17.6,15.0,29.99,SSW,198,1.0,-999.0,88,-99.99,,,0.02,weatherlink.com 1.10,2013-12-17 11:53:00,
2013-12-17 07:08:00,17.9,15.0,29.99,SSW,198,0.0,-999.0,89,-99.99,,,0.02,weatherlink.com 1.10,2013-12-17 12:08:00,
2013-12-17 07:23:00,18.3,16.0,30.00,SSW,198,1.0,-999.0,89,-99.99,,,0.02,weatherlink.com 1.10,2013-12-17 12:23:00,
2013-12-17 07:38:00,18.8,16.0,30.00,SSW,198,0.0,-999.0,89,-99.99,,,0.02,weatherlink.com 1.10,2013-12-17 12:38:00,
2013-12-17 07:53:00,19.1,16.0,29.99,SSE,166,2.0,-999.0,89,-99.99,,,0.02,weatherlink.com 1.10,2013-12-17 12:53:00,
2013-12-17 08:08:00,19.4,17.0,30.00,SSE,166,4.0,-999.0,89,-99.99,,,0.02,weatherlink.com 1.10,2013-12-17 13:08:00,
2013-12-17 08:23:00,19.8,17.0,29.99,SSE,163,3.0,-999.0,89,-99.99,,,0.02,weatherlink.com 1.10,2013-12-17 13:23:00,
2013-12-17 08:38:00,20.2,18.0,29.99,South,189,0.0,-999.0,89,-99.99,,,0.02,weatherlink.com 1.10,2013-12-17 13:38:00,
2013-12-17 08:53:00,20.5,18.0,29.99,ESE,123,4.0,-999.0,89,-99.99,,,0.02,weatherlink.com 1.10,2013-12-17 13:53:00,
2013-12-17 09:08:00,20.8,18.0,29.99,South,173,0.0,-999.0,89,-99.99,,,0.02,weatherlink.com 1.10,2013-12-17 14:08:00,
2013-12-17 09:23:00,21.4,19.0,29.98,South,177,2.0,-999.0,89,-99.99,,,0.02,weatherlink.com 1.10,2013-12-17 14:23:00,
2013-12-17 09:38:00,22.1,19.0,29.99,South,188,6.0,-999.0,89,-99.99,,,0.02,weatherlink.com 1.10,2013-12-17 14:38:00,
2013-12-17 09:54:00,22.7,20.0,30.00,South,179,8.0,-999.0,89,-99.99,,,0.02,weatherlink.com 1.10,2013-12-17 14:54:00,
2013-12-17 10:09:00,23.2,20.0,29.99,SSW,198,3.0,-999.0,88,-99.99,,,0.02,weatherlink.com 1.10,2013-12-17 15:09:00,
2013-12-17 10:24:00,23.6,21.0,29.98,South,184,8.0,-999.0,88,-99.99,,,0.02,weatherlink.com 1.10,2013-12-17 15:24:00,
2013-12-17 10:39:00,23.9,21.0,29.97,South,186,5.0,-999.0,88,-99.99,,,0.02,weatherlink.com 1.10,2013-12-17 15:39:00,
2013-12-17 10:54:00,24.2,21.0,29.97,South,175,9.0,-999.0,87,-99.99,,,0.02,weatherlink.com 1.10,2013-12-17 15:54:00,
2013-12-17 11:09:00,24.9,21.0,29.96,SSE,150,4.0,-999.0,86,-99.99,,,0.02,weatherlink.com 1.10,2013-12-17 16:09:00,
2013-12-17 11:24:00,25.0,21.0,29.95,South,190,5.0,-999.0,85,-99.99,,,0.02,weatherlink.com 1.10,2013-12-17 16:24:00,
2013-12-17 11:39:00,25.3,21.0,29.93,SSE,163,4.0,-999.0,85,-99.99,,,0.02,weatherlink.com 1.10,2013-12-17 16:39:00,
2013-12-17 11:54:00,25.8,22.0,29.92,SSE,158,8.0,-999.0,84,-99.99,,,0.02,weatherlink.com 1.10,2013-12-17 16:54:00,
2013-12-17 12:09:00,26.1,22.0,29.91,SSE,156,5.0,-999.0,83,-99.99,,,0.02,weatherlink.com 1.10,2013-12-17 17:09:00,
2013-12-17 12:24:00,26.7,22.0,29.90,SE,130,0.0,-999.0,82,-99.99,,,0.02,weatherlink.com 1.10,2013-12-17 17:24:00,
2013-12-17 12:39:00,26.6,22.0,29.89,SE,127,4.0,-999.0,82,-99.99,,,0.02,weatherlink.com 1.10,2013-12-17 17:39:00,
2013-12-17 12:54:00,26.2,22.0,29.90,South,184,6.0,-999.0,83,-99.99,,,0.02,weatherlink.com 1.10,2013-12-17 17:54:00,
2013-12-17 13:09:00,26.2,21.0,29.90,South,171,9.0,-999.0,82,-99.99,,,0.02,weatherlink.com 1.10,2013-12-17 18:09:00,
2013-12-17 13:24:00,25.5,21.0,29.89,South,185,12.0,-999.0,83,-99.99,,,0.02,weatherlink.com 1.10,2013-12-17 18:24:00,
2013-12-17 13:39:00,24.2,20.0,29.90,South,175,9.0,-999.0,83,-99.99,,,0.02,weatherlink.com 1.10,2013-12-17 18:39:00,
2013-12-17 13:54:00,23.8,20.0,29.90,SSE,155,3.0,-999.0,85,-99.99,,,0.02,weatherlink.com 1.10,2013-12-17 18:54:00,
2013-12-17 14:09:00,23.6,20.0,29.89,SSW,194,11.0,-999.0,86,-99.99,,,0.02,weatherlink.com 1.10,2013-12-17 19:09:00,
2013-12-17 14:24:00,23.6,20.0,29.89,South,174,6.0,-999.0,86,-99.99,,,0.02,weatherlink.com 1.10,2013-12-17 19:24:00,
2013-12-17 14:39:00,23.8,21.0,29.89,SSE,168,9.0,-999.0,87,-99.99,,,0.02,weatherlink.com 1.10,2013-12-17 19:39:00,
2013-12-17 14:54:00,24.1,21.0,29.89,South,191,4.0,-999.0,86,-99.99,,,0.02,weatherlink.com 1.10,2013-12-17 19:54:00,
2013-12-17 15:09:00,24.6,21.0,29.90,SW,224,6.0,-999.0,86,-99.99,,,0.02,weatherlink.com 1.10,2013-12-17 20:09:00,
2013-12-17 15:24:00,24.6,21.0,29.90,South,178,6.0,-999.0,85,-99.99,,,0.02,weatherlink.com 1.10,2013-12-17 20:24:00,
2013-12-17 15:39:00,24.7,21.0,29.90,South,185,5.0,-999.0,86,-99.99,,,0.02,weatherlink.com 1.10,2013-12-17 20:39:00,
2013-12-17 15:54:00,24.9,21.0,29.91,South,188,3.0,-999.0,86,-99.99,,,0.02,weatherlink.com 1.10,2013-12-17 20:54:00,
2013-12-17 16:09:00,25.0,21.0,29.91,South,171,2.0,-999.0,86,-99.99,,,0.02,weatherlink.com 1.10,2013-12-17 21:09:00,
2013-12-17 16:24:00,24.8,21.0,29.91,South,185,7.0,-999.0,86,-99.99,,,0.02,weatherlink.com 1.10,2013-12-17 21:24:00,
2013-12-17 16:39:00,24.5,21.0,29.91,SE,143,2.0,-999.0,86,-99.99,,,0.02,weatherlink.com 1.10,2013-12-17 21:39:00,
2013-12-17 16:54:00,24.3,21.0,29.91,South,176,4.0,-999.0,86,-99.99,,,0.02,weatherlink.com 1.10,2013-12-17 21:54:00,
2013-12-17 17:09:00,24.4,21.0,29.91,South,169,5.0,-999.0,87,-99.99,,,0.02,weatherlink.com 1.10,2013-12-17 22:09:00,
2013-12-17 17:24:00,24.4,21.0,29.91,SW,229,7.0,-999.0,87,-99.99,,,0.02,weatherlink.com 1.10,2013-12-17 22:24:00,
2013-12-17 17:39:00,24.5,21.0,29.91,South,183,6.0,-999.0,87,-99.99,,,0.02,weatherlink.com 1.10,2013-12-17 22:39:00,
2013-12-17 17:54:00,24.7,21.0,29.92,South,180,5.0,-999.0,86,-99.99,,,0.02,weatherlink.com 1.10,2013-12-17 22:54:00,
2013-12-17 18:09:00,24.8,22.0,29.92,SSE,163,2.0,-999.0,87,-99.99,,,0.02,weatherlink.com 1.10,2013-12-17 23:09:00,
2013-12-17 18:24:00,24.9,21.0,29.92,South,188,3.0,-999.0,86,-99.99,,,0.02,weatherlink.com 1.10,2013-12-17 23:24:00,
2013-12-17 18:39:00,24.8,21.0,29.93,South,176,4.0,-999.0,86,-99.99,,,0.02,weatherlink.com 1.10,2013-12-17 23:39:00,
2013-12-17 18:54:00,24.9,21.0,29.93,South,188,2.0,-999.0,86,-99.99,,,0.02,weatherlink.com 1.10,2013-12-17 23:54:00,
2013-12-17 19:09:00,25.3,22.0,29.93,South,172,3.0,-999.0,86,-99.99,,,0.02,weatherlink.com 1.10,2013-12-18 00:09:00,
2013-12-17 19:24:00,25.5,22.0,29.94,South,184,6.0,-999.0,87,-99.99,,,0.02,weatherlink.com 1.10,2013-12-18 00:24:00,
2013-12-17 19:39:00,25.5,22.0,29.94,SSW,196,3.0,-999.0,86,-99.99,,,0.02,weatherlink.com 1.10,2013-12-18 00:39:00,
2013-12-17 19:54:00,25.6,22.0,29.95,South,179,6.0,-999.0,87,-99.99,,,0.02,weatherlink.com 1.10,2013-12-18 00:54:00,
2013-12-17 20:09:00,25.8,23.0,29.95,South,171,3.0,-999.0,87,-99.99,,,0.02,weatherlink.com 1.10,2013-12-18 01:09:00,
2013-12-17 20:24:00,26.0,23.0,29.96,South,176,2.0,-999.0,87,-99.99,,,0.02,weatherlink.com 1.10,2013-12-18 01:24:00,
2013-12-17 20:39:00,25.8,22.0,29.96,South,184,2.0,-999.0,86,-99.99,,,0.02,weatherlink.com 1.10,2013-12-18 01:39:00,
2013-12-17 20:54:00,25.3,22.0,29.96,South,184,1.0,-999.0,87,-99.99,,,0.02,weatherlink.com 1.10,2013-12-18 01:54:00,
2013-12-17 21:09:00,25.1,22.0,29.96,South,184,0.0,-999.0,87,-99.99,,,0.02,weatherlink.com 1.10,2013-12-18 02:09:00,
2013-12-17 21:24:00,24.7,22.0,29.97,South,186,2.0,-999.0,88,-99.99,,,0.02,weatherlink.com 1.10,2013-12-18 02:24:00,
2013-12-17 21:39:00,24.6,22.0,29.98,South,175,2.0,-999.0,88,-99.99,,,0.02,weatherlink.com 1.10,2013-12-18 02:39:00,
2013-12-17 21:54:00,24.2,21.0,29.98,South,174,3.0,-999.0,88,-99.99,,,0.02,weatherlink.com 1.10,2013-12-18 02:54:00,
2013-12-17 22:09:00,23.8,21.0,29.98,South,174,3.0,-999.0,88,-99.99,,,0.02,weatherlink.com 1.10,2013-12-18 03:09:00,
2013-12-17 22:24:00,23.2,20.0,29.99,South,174,0.0,-999.0,88,-99.99,,,0.02,weatherlink.com 1.10,2013-12-18 03:24:00,
2013-12-17 22:39:00,22.9,20.0,29.99,South,174,0.0,-999.0,89,-99.99,,,0.02,weatherlink.com 1.10,2013-12-18 03:39:00,
2013-12-17 22:54:00,22.5,20.0,29.99,South,174,0.0,-999.0,89,-99.99,,,0.02,weatherlink.com 1.10,2013-12-18 03:54:00,
2013-12-17 23:09:00,22.0,20.0,30.00,South,174,3.0,-999.0,90,-99.99,,,0.02,weatherlink.com 1.10,2013-12-18 04:09:00,
2013-12-17 23:24:00,22.1,20.0,30.01,South,184,5.0,-999.0,90,-99.99,,,0.02,weatherlink.com 1.10,2013-12-18 04:24:00,
2013-12-17 23:39:00,22.2,20.0,30.00,South,178,2.0,-999.0,91,-99.99,,,0.02,weatherlink.com 1.10,2013-12-18 04:39:00,
2013-12-17 23:54:00,22.6,20.0,30.00,South,176,4.0,-999.0,91,-99.99,,,0.02,weatherlink.com 1.10,2013-12-18 04:54:00,